Orbital Elements at Epoch 2459200.5 (2020-Dec-17.0) TDB
Reference: JPL 25 (heliocentric ecliptic J2000)
Element | Value | Uncertainty (1-sigma) | Units |
e | .207276819454582 | 3.5998e-08 | |
a | 2.322646570809881 | 8.2104e-09 | au |
q | 1.841215776895318 | 8.2931e-08 | au |
i | 7.00960642672555 | 4.2846e-06 | deg |
node | 165.9043419393613 | 3.2519e-05 | deg |
peri | 199.7992256677221 | 3.4097e-05 | deg |
M | 95.23115096899323 | 1.2009e-05 | deg |
tp | 2458858.481455902942 (2020-Jan-09.98145590) | 4.2226e-05 | TDB |
period | 1292.924370041796 3.54 | 6.8556e-06 1.877e-08 | d yr |
n | .2784385601675699 | 1.4764e-09 | deg/d |
Q | 2.804077364724445 | 9.9123e-09 | au |
|
| | Orbit Determination Parameters
Additional Information
|